Precipitable_Water
1.38 1.41 1.37 1.30 1.26 1.26 1.29 1.32 1.34 1.35 1.33 1.33 1.36 1.36 1.34 1.30 1.27 1.23 1.22 1.27 1.28 1.27 1.16 1.08 0.97 0.89 0.93 0.93 0.93 0.96 0.99 1.02 1.00 1.01 1.09 1.15 1.18 1.22 1.29 1.37 1.46 1.52 1.56 1.58 1.57 1.57 1.58 1.57 1.55 1.56 1.56 1.56 1.54 1.52 1.51 1.51 1.51 1.52 1.53 1.54 1.56 1.58 1.57 1.55 1.56 1.54 1.55 1.55 1.51 1.49 1.38 1.19 1.10 1.06 1.02 1.02 1.05 1.10 1.10 1.00 0.90 0.87 0.85 0.89 0.89
1.37 1.43 1.38 1.32 1.30 1.29 1.29 1.30 1.34 1.36 1.35 1.34 1.36 1.36 1.33 1.29 1.26 1.24 1.28 1.29 1.27 1.22 1.14 1.05 0.97 0.94 0.95 0.94 0.95 0.96 1.00 1.04 1.05 1.06 1.11 1.16 1.20 1.25 1.31 1.41 1.49 1.54 1.58 1.58 1.58 1.58 1.57 1.55 1.55 1.55 1.58 1.56 1.53 1.51 1.51 1.51 1.52 1.52 1.52 1.53 1.53 1.55 1.56 1.55 1.55 1.55 1.53 1.49 1.40 1.27 1.16 1.11 1.07 1.00 1.00 0.98 1.01 1.01 0.94 0.90 0.88 0.83 0.81 0.82 0.83
1.44 1.40 1.40 1.35 1.34 1.33 1.32 1.31 1.33 1.36 1.37 1.36 1.36 1.35 1.32 1.28 1.25 1.27 1.28 1.26 1.25 1.20 1.11 1.04 0.96 0.96 0.97 0.94 0.94 0.98 1.04 1.09 1.09 1.08 1.13 1.18 1.22 1.29 1.38 1.44 1.51 1.55 1.58 1.59 1.59 1.58 1.57 1.55 1.55 1.55 1.54 1.53 1.51 1.51 1.50 1.51 1.52 1.53 1.53 1.52 1.52 1.52 1.54 1.53 1.50 1.48 1.37 1.27 1.23 1.16 1.13 1.06 1.04 0.96 0.96 0.92 0.90 0.84 0.82 0.81 0.78 0.78 0.80 0.84 0.84
1.44 1.46 1.44 1.38 1.36 1.35 1.34 1.33 1.32 1.34 1.36 1.37 1.35 1.33 1.30 1.27 1.28 1.26 1.24 1.25 1.24 1.17 1.08 1.04 0.95 0.96 0.96 0.95 0.99 1.03 1.06 1.10 1.10 1.11 1.16 1.22 1.28 1.37 1.42 1.46 1.51 1.54 1.57 1.56 1.58 1.59 1.57 1.55 1.54 1.53 1.55 1.55 1.53 1.52 1.50 1.49 1.52 1.52 1.53 1.53 1.51 1.50 1.47 1.45 1.44 1.31 1.17 1.24 1.31 1.27 1.19 1.05 0.97 0.92 0.89 0.87 0.84 0.80 0.74 0.74 0.74 0.77 0.84 0.84 0.82
1.48 1.46 1.51 1.39 1.36 1.37 1.37 1.35 1.33 1.32 1.35 1.36 1.34 1.31 1.30 1.29 1.28 1.27 1.24 1.24 1.21 1.14 1.06 1.00 0.96 0.96 0.98 1.00 1.02 1.03 1.05 1.06 1.11 1.16 1.21 1.27 1.35 1.40 1.44 1.47 1.48 1.51 1.54 1.57 1.55 1.57 1.57 1.54 1.52 1.53 1.54 1.52 1.50 1.48 1.47 1.47 1.51 1.53 1.54 1.53 1.50 1.47 1.44 1.38 1.19 1.04 1.04 1.16 1.26 1.19 1.06 0.94 0.85 0.84 0.84 0.85 0.82 0.80 0.80 0.77 0.74 0.71 0.72 0.74 0.77
1.47 1.48 1.47 1.41 1.39 1.40 1.38 1.37 1.34 1.33 1.35 1.36 1.35 1.32 1.31 1.29 1.29 1.27 1.25 1.22 1.17 1.08 1.04 0.97 0.94 0.97 1.00 1.02 1.04 1.03 1.08 1.11 1.15 1.21 1.25 1.34 1.41 1.44 1.46 1.45 1.47 1.49 1.51 1.52 1.52 1.53 1.51 1.49 1.50 1.51 1.50 1.48 1.48 1.48 1.48 1.49 1.50 1.52 1.52 1.50 1.42 1.31 1.22 1.05 0.94 0.99 1.08 1.21 1.18 1.19 1.00 0.93 0.84 0.79 0.86 0.83 0.81 0.81 0.80 0.79 0.82 0.80 0.75 0.72 0.69
1.52 1.50 1.43 1.42 1.45 1.44 1.40 1.38 1.36 1.33 1.33 1.35 1.34 1.32 1.30 1.29 1.27 1.27 1.24 1.18 1.12 1.05 0.99 0.94 0.93 0.98 1.00 1.03 1.05 1.06 1.09 1.12 1.18 1.23 1.31 1.38 1.41 1.45 1.46 1.45 1.46 1.47 1.47 1.50 1.49 1.52 1.53 1.53 1.48 1.51 1.52 1.53 1.52 1.53 1.52 1.51 1.49 1.45 1.39 1.31 1.24 1.11 0.91 0.85 0.90 1.09 1.20 1.22 1.18 1.03 0.93 0.88 0.80 0.80 0.81 0.78 0.81 0.78 0.73 0.76 0.77 0.77 0.77 0.78 0.79
1.56 1.48 1.43 1.42 1.49 1.46 1.42 1.39 1.36 1.32 1.30 1.31 1.30 1.29 1.27 1.26 1.25 1.24 1.19 1.14 1.09 1.03 0.97 0.93 0.94 0.98 1.01 1.05 1.07 1.07 1.09 1.14 1.20 1.26 1.33 1.38 1.41 1.44 1.46 1.46 1.44 1.44 1.44 1.44 1.45 1.44 1.45 1.49 1.48 1.49 1.51 1.52 1.52 1.51 1.47 1.39 1.33 1.26 1.21 1.13 0.98 0.84 0.76 0.71 0.78 0.92 1.05 1.18 1.08 0.96 0.95 0.91 0.82 0.80 0.85 0.89 0.89 0.87 0.83 0.86 0.88 0.89 0.89 0.90 0.89
1.49 1.46 1.45 1.47 1.52 1.46 1.43 1.38 1.35 1.31 1.29 1.28 1.26 1.25 1.24 1.22 1.20 1.16 1.13 1.08 1.05 0.98 0.95 0.95 0.98 1.00 1.03 1.05 1.08 1.08 1.10 1.15 1.21 1.26 1.31 1.37 1.41 1.42 1.45 1.43 1.42 1.40 1.38 1.37 1.37 1.37 1.39 1.42 1.46 1.45 1.45 1.45 1.39 1.30 1.21 1.15 1.11 1.05 0.97 0.83 0.74 0.69 0.73 0.86 0.93 0.97 1.00 0.95 0.99 0.97 0.90 0.86 0.88 0.88 0.93 0.93 0.96 0.97 0.97 0.96 0.91 0.90 0.90 0.92 0.96
1.48 1.46 1.50 1.56 1.53 1.44 1.41 1.38 1.31 1.28 1.25 1.22 1.19 1.17 1.16 1.12 1.10 1.08 1.05 1.03 0.98 0.95 0.94 0.98 1.01 1.04 1.02 1.04 1.08 1.09 1.11 1.15 1.23 1.28 1.32 1.35 1.39 1.40 1.39 1.41 1.40 1.37 1.35 1.32 1.30 1.31 1.32 1.34 1.37 1.36 1.31 1.23 1.16 1.09 1.03 0.97 0.90 0.85 0.80 0.74 0.66 0.74 0.85 0.90 0.96 1.02 0.99 1.01 1.05 1.02 0.98 0.93 0.95 0.98 1.05 1.04 1.00 0.99 1.00 0.99 1.02 1.00 0.99 0.98 0.98
1.48 1.49 1.54 1.57 1.52 1.42 1.41 1.36 1.30 1.25 1.21 1.17 1.13 1.12 1.09 1.09 1.06 1.04 1.02 0.97 0.95 0.95 0.97 1.00 1.05 1.06 1.06 1.06 1.09 1.12 1.13 1.18 1.23 1.26 1.30 1.34 1.33 1.34 1.36 1.37 1.37 1.34 1.30 1.27 1.24 1.22 1.23 1.24 1.25 1.23 1.15 1.08 1.02 0.94 0.90 0.88 0.83 0.80 0.76 0.74 0.78 0.81 0.91 0.97 1.02 0.85 0.81 0.83 0.90 0.93 0.94 1.02 1.02 1.01 1.00 0.98 0.95 0.92 0.95 1.00 1.02 1.02 1.00 0.98 0.96
1.48 1.54 1.60 1.62 1.51 1.44 1.39 1.34 1.28 1.23 1.18 1.13 1.11 1.09 1.08 1.06 1.05 1.02 0.97 0.96 0.97 0.98 1.01 1.04 1.08 1.09 1.06 1.08 1.12 1.14 1.15 1.18 1.22 1.24 1.27 1.29 1.29 1.30 1.30 1.32 1.35 1.33 1.25 1.19 1.15 1.13 1.10 1.11 1.10 1.06 1.01 0.94 0.93 0.90 0.86 0.83 0.81 0.77 0.73 0.72 0.81 0.86 0.97 1.08 1.18 1.03 1.01 0.97 0.97 0.97 0.97 0.98 0.99 0.98 0.98 0.98 0.96 0.92 0.98 1.01 1.00 1.00 0.98 0.96 0.95
1.49 1.56 1.63 1.61 1.48 1.45 1.38 1.32 1.25 1.21 1.17 1.13 1.10 1.09 1.08 1.06 1.04 1.01 0.98 0.97 0.99 1.02 1.03 1.06 1.10 1.12 1.09 1.10 1.13 1.14 1.14 1.18 1.22 1.23 1.25 1.25 1.25 1.26 1.27 1.29 1.33 1.31 1.18 1.08 1.08 1.07 1.03 1.01 0.98 0.97 0.96 0.94 0.94 0.92 0.89 0.84 0.81 0.76 0.71 0.76 0.82 0.88 0.95 0.93 0.87 0.94 0.99 0.98 0.92 0.92 0.98 0.98 0.97 0.98 0.99 0.99 0.96 0.94 0.95 0.97 0.97 0.96 0.96 0.97 0.97
1.50 1.60 1.64 1.59 1.48 1.45 1.38 1.32 1.26 1.22 1.19 1.16 1.13 1.11 1.10 1.08 1.05 1.02 1.01 1.02 1.04 1.04 1.06 1.08 1.09 1.10 1.09 1.09 1.12 1.14 1.16 1.18 1.20 1.22 1.23 1.23 1.22 1.23 1.25 1.27 1.30 1.28 1.13 1.07 1.07 1.06 1.02 0.99 0.99 0.97 0.97 0.98 0.93 0.92 0.89 0.85 0.81 0.77 0.73 0.81 0.84 0.92 0.98 1.06 1.05 1.02 0.98 1.00 0.99 0.97 0.96 1.01 0.99 0.99 0.98 0.97 0.96 0.93 0.92 0.92 0.93 0.94 0.93 0.93 0.91
1.54 1.63 1.60 1.56 1.50 1.43 1.39 1.35 1.30 1.26 1.22 1.19 1.17 1.14 1.13 1.11 1.09 1.07 1.05 1.06 1.08 1.08 1.09 1.10 1.11 1.13 1.12 1.11 1.13 1.16 1.18 1.18 1.19 1.20 1.21 1.21 1.20 1.20 1.22 1.24 1.25 1.22 1.12 1.07 1.06 1.04 1.03 1.02 1.01 1.02 1.00 0.98 0.95 0.91 0.90 0.87 0.81 0.77 0.77 0.87 0.98 0.99 1.04 1.09 1.04 1.06 1.06 1.01 0.99 0.98 0.95 0.95 0.96 0.94 0.94 0.93 0.92 0.91 0.90 0.91 0.92 0.92 0.91 0.90 0.89
1.62 1.62 1.62 1.54 1.47 1.47 1.41 1.39 1.36 1.32 1.27 1.25 1.22 1.20 1.16 1.14 1.11 1.10 1.08 1.07 1.09 1.11 1.11 1.10 1.14 1.15 1.14 1.14 1.12 1.15 1.19 1.19 1.18 1.20 1.20 1.20 1.21 1.20 1.21 1.22 1.22 1.18 1.13 1.07 1.05 1.07 1.06 1.05 1.04 1.04 1.02 0.99 0.95 0.92 0.90 0.86 0.81 0.77 0.86 0.93 0.97 1.05 1.08 1.12 1.12 1.06 1.04 1.01 0.97 0.94 0.92 0.92 0.91 0.91 0.90 0.90 0.90 0.91 0.91 0.91 0.90 0.90 0.89 0.88 0.88
1.67 1.68 1.59 1.55 1.51 1.45 1.47 1.42 1.41 1.38 1.34 1.32 1.31 1.27 1.23 1.20 1.15 1.13 1.13 1.10 1.09 1.11 1.13 1.14 1.14 1.14 1.16 1.15 1.12 1.14 1.18 1.19 1.19 1.20 1.20 1.20 1.21 1.21 1.20 1.21 1.21 1.18 1.13 1.07 1.07 1.09 1.09 1.09 1.07 1.06 1.04 0.98 0.95 0.91 0.88 0.85 0.80 0.79 0.90 0.94 0.99 1.03 1.08 1.13 1.12 1.11 1.04 1.00 1.00 0.97 0.92 0.90 0.91 0.92 0.90 0.90 0.88 0.87 0.89 0.90 0.90 0.87 0.86 0.85 0.84
1.64 1.69 1.62 1.60 1.58 1.53 1.55 1.47 1.45 1.40 1.41 1.39 1.38 1.37 1.35 1.33 1.33 1.30 1.25 1.19 1.14 1.14 1.14 1.14 1.14 1.17 1.18 1.16 1.13 1.13 1.15 1.16 1.15 1.17 1.19 1.20 1.21 1.20 1.18 1.19 1.20 1.18 1.14 1.08 1.08 1.11 1.12 1.11 1.11 1.07 1.02 0.97 0.93 0.90 0.85 0.80 0.78 0.81 0.88 0.95 0.99 1.00 1.02 1.03 1.03 1.06 1.06 1.05 1.01 0.96 0.92 0.90 0.90 0.89 0.88 0.86 0.87 0.87 0.87 0.88 0.88 0.84 0.83 0.85 0.88
1.63 1.69 1.67 1.66 1.63 1.63 1.63 1.58 1.46 1.46 1.42 1.40 1.46 1.44 1.42 1.43 1.42 1.41 1.37 1.33 1.27 1.22 1.20 1.16 1.14 1.17 1.17 1.14 1.18 1.19 1.19 1.12 1.07 1.08 1.12 1.17 1.20 1.19 1.18 1.18 1.17 1.17 1.15 1.11 1.11 1.12 1.13 1.12 1.11 1.07 1.01 0.96 0.92 0.87 0.82 0.79 0.77 0.79 0.89 0.94 0.99 0.99 1.03 1.02 0.94 1.04 1.06 1.00 0.96 0.92 0.88 0.88 0.91 0.91 0.92 0.92 0.91 0.89 0.89 0.88 0.86 0.88 0.88 0.89 0.88
1.64 1.68 1.66 1.70 1.76 1.72 1.71 1.64 1.59 1.57 1.53 1.51 1.48 1.49 1.46 1.46 1.47 1.45 1.44 1.43 1.38 1.33 1.29 1.24 1.22 1.21 1.16 1.16 1.22 1.27 1.26 1.17 1.10 1.06 1.08 1.10 1.11 1.18 1.17 1.17 1.16 1.16 1.13 1.14 1.14 1.13 1.13 1.13 1.10 1.07 1.02 0.97 0.91 0.86 0.84 0.77 0.75 0.83 0.91 0.99 1.03 1.09 1.13 1.13 1.13 1.11 1.03 0.95 0.92 0.88 0.93 0.95 0.95 0.95 0.93 0.92 0.90 0.89 0.88 0.85 0.87 0.89 0.89 0.89 0.90
1.59 1.64 1.67 1.70 1.85 1.81 1.78 1.77 1.80 1.75 1.65 1.61 1.59 1.50 1.51 1.53 1.51 1.51 1.51 1.50 1.46 1.41 1.36 1.34 1.32 1.28 1.27 1.30 1.32 1.41 1.37 1.29 1.14 1.14 1.06 1.10 1.14 1.19 1.17 1.19 1.17 1.14 1.14 1.14 1.15 1.16 1.15 1.13 1.09 1.08 1.05 1.00 0.94 0.87 0.82 0.80 0.82 0.89 0.93 0.97 1.04 1.10 1.11 1.11 1.13 1.06 1.03 1.00 0.95 0.94 0.98 0.98 0.96 0.93 0.92 0.92 0.91 0.92 0.92 0.89 0.87 0.88 0.90 0.91 0.89
1.47 1.55 1.68 1.73 1.75 1.71 1.72 1.79 1.76 1.70 1.65 1.68 1.63 1.62 1.53 1.56 1.55 1.52 1.54 1.56 1.52 1.48 1.44 1.37 1.35 1.37 1.44 1.43 1.45 1.45 1.49 1.44 1.34 1.16 1.14 1.14 1.09 1.14 1.15 1.20 1.18 1.15 1.14 1.13 1.12 1.16 1.19 1.16 1.10 1.07 1.06 1.03 0.99 0.95 0.86 0.83 0.90 0.94 1.00 1.02 1.08 1.15 1.17 1.21 1.18 1.18 1.11 1.04 0.97 0.99 0.99 0.98 0.95 0.93 0.95 0.94 0.94 0.94 0.93 0.94 0.95 0.92 0.92 0.91 0.91
1.45 1.53 1.64 1.75 1.74 1.68 1.73 1.76 1.69 1.66 1.69 1.67 1.68 1.67 1.62 1.64 1.65 1.59 1.62 1.60 1.60 1.57 1.53 1.48 1.41 1.47 1.48 1.51 1.60 1.60 1.63 1.61 1.54 1.33 1.26 1.16 1.13 1.07 1.10 1.13 1.16 1.17 1.14 1.13 1.11 1.13 1.20 1.21 1.16 1.10 1.05 1.09 1.14 1.15 1.00 0.93 0.98 1.01 1.05 1.08 1.17 1.18 1.15 1.16 1.18 1.14 1.11 1.05 0.97 0.96 0.97 0.99 1.01 1.01 0.97 0.96 0.95 0.94 0.91 0.94 0.94 0.94 0.94 0.93 0.94
1.50 1.55 1.62 1.73 1.69 1.63 1.66 1.72 1.68 1.65 1.70 1.70 1.68 1.70 1.71 1.75 1.74 1.75 1.77 1.70 1.64 1.65 1.67 1.60 1.59 1.62 1.64 1.70 1.68 1.66 1.71 1.72 1.60 1.53 1.48 1.29 1.20 1.07 1.02 1.08 1.12 1.14 1.16 1.15 1.12 1.13 1.17 1.22 1.21 1.16 1.13 1.19 1.30 1.25 1.16 1.02 1.01 1.07 1.11 1.15 1.11 1.17 1.19 1.15 1.14 1.13 1.12 1.06 1.02 0.99 1.02 1.05 1.03 1.00 0.99 1.00 0.99 0.97 1.00 0.98 0.99 0.96 0.94 0.93 0.92
1.49 1.53 1.63 1.60 1.64 1.63 1.67 1.73 1.74 1.76 1.77 1.72 1.70 1.68 1.74 1.75 1.77 1.79 1.77 1.75 1.74 1.74 1.72 1.72 1.72 1.74 1.70 1.65 1.67 1.65 1.64 1.65 1.65 1.61 1.55 1.47 1.29 1.11 1.02 1.03 1.06 1.07 1.13 1.19 1.15 1.12 1.15 1.17 1.19 1.18 1.21 1.26 1.35 1.33 1.23 1.08 1.11 1.15 1.14 1.12 1.12 1.12 1.10 1.13 1.15 1.17 1.13 1.11 1.02 1.03 1.04 1.04 1.04 1.05 1.06 1.08 1.06 1.08 1.08 1.04 1.03 1.01 0.97 0.97 0.97
1.48 1.41 1.46 1.59 1.62 1.68 1.70 1.72 1.74 1.74 1.73 1.73 1.74 1.73 1.78 1.75 1.70 1.70 1.71 1.68 1.79 1.74 1.72 1.73 1.71 1.72 1.67 1.70 1.66 1.64 1.60 1.60 1.63 1.60 1.56 1.52 1.38 1.26 1.05 1.03 1.01 1.05 1.11 1.21 1.16 1.22 1.15 1.16 1.12 1.12 1.24 1.35 1.42 1.35 1.26 1.15 1.12 1.13 1.12 1.13 1.09 1.15 1.18 1.20 1.17 1.12 1.05 1.06 1.04 1.05 1.03 1.05 1.05 1.06 1.06 1.03 1.03 1.05 1.02 1.06 1.05 1.05 1.03 1.01 0.97
1.44 1.43 1.55 1.60 1.66 1.69 1.73 1.72 1.68 1.71 1.72 1.75 1.75 1.74 1.75 1.75 1.72 1.74 1.72 1.76 1.80 1.72 1.71 1.66 1.64 1.62 1.69 1.67 1.57 1.57 1.65 1.59 1.63 1.61 1.57 1.51 1.44 1.37 1.26 1.17 1.03 1.06 1.10 1.21 1.20 1.24 1.24 1.27 1.15 1.09 1.27 1.41 1.38 1.30 1.19 1.17 1.18 1.16 1.10 1.16 1.16 1.15 1.12 1.14 1.13 1.11 1.08 1.07 1.04 1.05 1.04 1.00 1.04 1.06 1.05 1.04 1.06 1.05 1.03 1.00 1.01 0.99 0.99 0.98 1.03
1.43 1.47 1.51 1.61 1.74 1.78 1.70 1.68 1.71 1.72 1.71 1.72 1.75 1.78 1.74 1.73 1.76 1.70 1.78 1.74 1.68 1.62 1.72 1.62 1.52 1.55 1.63 1.64 1.57 1.55 1.48 1.54 1.65 1.63 1.62 1.60 1.48 1.44 1.45 1.38 1.21 1.19 1.11 1.21 1.29 1.34 1.33 1.32 1.22 1.15 1.30 1.37 1.33 1.24 1.22 1.18 1.16 1.19 1.18 1.15 1.10 1.12 1.14 1.15 1.12 1.10 1.14 1.08 1.11 1.07 1.07 1.07 1.07 1.07 1.04 1.05 1.05 1.08 1.06 1.04 1.06 1.08 1.09 1.08 1.07
1.35 1.49 1.59 1.62 1.75 1.72 1.74 1.67 1.67 1.67 1.72 1.76 1.79 1.78 1.81 1.75 1.72 1.72 1.69 1.69 1.69 1.72 1.65 1.60 1.54 1.56 1.65 1.61 1.61 1.52 1.61 1.59 1.51 1.62 1.63 1.61 1.60 1.56 1.55 1.41 1.34 1.37 1.18 1.16 1.26 1.33 1.36 1.35 1.28 1.30 1.33 1.35 1.30 1.23 1.23 1.15 1.14 1.16 1.17 1.14 1.13 1.10 1.12 1.11 1.09 1.10 1.12 1.13 1.14 1.09 1.08 1.08 1.07 1.04 1.04 1.11 1.13 1.10 1.16 1.19 1.13 1.12 1.11 1.08 1.03
1.38 1.48 1.55 1.58 1.57 1.62 1.64 1.56 1.53 1.63 1.74 1.89 1.86 1.73 1.72 1.68 1.64 1.65 1.64 1.63 1.59 1.59 1.55 1.50 1.49 1.51 1.52 1.55 1.56 1.51 1.49 1.48 1.45 1.52 1.54 1.61 1.63 1.61 1.55 1.49 1.39 1.36 1.26 1.15 1.19 1.23 1.27 1.33 1.32 1.35 1.32 1.34 1.30 1.27 1.23 1.14 1.14 1.19 1.18 1.17 1.10 1.14 1.09 1.09 1.08 1.11 1.10 1.17 1.15 1.07 1.09 1.09 1.09 1.12 1.18 1.16 1.14 1.13 1.15 1.16 1.08 1.07 1.04 1.00 1.00
1.41 1.47 1.51 1.51 1.47 1.53 1.45 1.49 1.44 1.45 1.50 1.56 1.52 1.56 1.52 1.51 1.55 1.61 1.56 1.50 1.53 1.51 1.46 1.43 1.41 1.40 1.44 1.48 1.48 1.47 1.46 1.42 1.42 1.49 1.45 1.53 1.65 1.61 1.59 1.53 1.43 1.38 1.32 1.20 1.19 1.17 1.27 1.31 1.35 1.31 1.36 1.36 1.35 1.32 1.24 1.17 1.19 1.17 1.19 1.18 1.14 1.15 1.15 1.12 1.09 1.12 1.10 1.14 1.16 1.13 1.11 1.10 1.12 1.18 1.20 1.21 1.18 1.19 1.19 1.16 1.08 1.06 0.99 1.01 0.98
1.32 1.32 1.39 1.52 1.41 1.45 1.47 1.46 1.48 1.54 1.53 1.50 1.51 1.45 1.44 1.48 1.49 1.48 1.45 1.49 1.49 1.43 1.42 1.40 1.34 1.37 1.39 1.44 1.45 1.42 1.43 1.44 1.43 1.44 1.45 1.41 1.53 1.54 1.52 1.48 1.42 1.41 1.37 1.32 1.28 1.25 1.31 1.38 1.39 1.41 1.44 1.40 1.40 1.35 1.29 1.23 1.19 1.20 1.20 1.21 1.17 1.17 1.14 1.10 1.10 1.09 1.13 1.16 1.20 1.19 1.16 1.16 1.14 1.21 1.23 1.22 1.21 1.20 1.19 1.12 1.05 1.00 1.00 0.97 0.98
1.31 1.37 1.39 1.40 1.33 1.35 1.36 1.37 1.40 1.39 1.41 1.36 1.39 1.37 1.39 1.44 1.40 1.36 1.41 1.42 1.41 1.41 1.38 1.40 1.38 1.38 1.41 1.40 1.43 1.43 1.46 1.43 1.44 1.48 1.44 1.40 1.58 1.58 1.57 1.54 1.46 1.43 1.44 1.39 1.38 1.32 1.30 1.39 1.41 1.45 1.45 1.43 1.40 1.36 1.31 1.28 1.28 1.28 1.22 1.15 1.18 1.17 1.18 1.13 1.17 1.17 1.17 1.19 1.23 1.27 1.27 1.30 1.27 1.23 1.20 1.19 1.17 1.17 1.15 1.11 1.10 1.06 1.05 1.03 0.95
1.27 1.33 1.33 1.28 1.33 1.36 1.37 1.36 1.33 1.32 1.34 1.34 1.33 1.32 1.33 1.33 1.33 1.37 1.38 1.45 1.42 1.40 1.38 1.37 1.39 1.37 1.37 1.40 1.41 1.42 1.41 1.43 1.45 1.41 1.37 1.42 1.42 1.39 1.61 1.58 1.58 1.56 1.52 1.48 1.42 1.39 1.29 1.33 1.41 1.41 1.40 1.38 1.36 1.37 1.33 1.31 1.30 1.31 1.23 1.18 1.18 1.19 1.17 1.15 1.18 1.20 1.22 1.24 1.27 1.29 1.33 1.38 1.37 1.31 1.23 1.11 1.16 1.15 1.13 1.10 1.11 1.10 1.07 1.04 1.02
1.31 1.33 1.30 1.34 1.36 1.36 1.36 1.31 1.32 1.29 1.27 1.27 1.26 1.25 1.27 1.28 1.28 1.31 1.36 1.39 1.39 1.39 1.39 1.38 1.36 1.36 1.34 1.39 1.41 1.40 1.41 1.41 1.45 1.42 1.38 1.37 1.35 1.41 1.36 1.49 1.63 1.59 1.54 1.54 1.50 1.46 1.38 1.30 1.38 1.32 1.37 1.35 1.37 1.39 1.37 1.36 1.34 1.30 1.24 1.20 1.19 1.19 1.22 1.24 1.23 1.25 1.26 1.29 1.32 1.32 1.36 1.35 1.35 1.34 1.35 1.29 1.05 1.07 1.06 1.08 1.11 1.09 1.08 1.05 1.08
1.37 1.38 1.38 1.39 1.33 1.33 1.34 1.32 1.32 1.32 1.28 1.26 1.28 1.28 1.27 1.28 1.29 1.28 1.30 1.38 1.36 1.37 1.36 1.37 1.39 1.40 1.34 1.32 1.42 1.42 1.40 1.39 1.42 1.38 1.36 1.37 1.33 1.35 1.37 1.44 1.56 1.64 1.51 1.56 1.60 1.53 1.42 1.37 1.35 1.35 1.34 1.33 1.38 1.37 1.39 1.39 1.37 1.34 1.27 1.22 1.20 1.21 1.24 1.25 1.25 1.28 1.30 1.31 1.30 1.34 1.34 1.35 1.30 1.25 1.27 1.30 1.13 1.05 1.07 1.11 1.11 1.13 1.12 1.12 1.13
1.44 1.39 1.35 1.35 1.33 1.35 1.34 1.33 1.31 1.31 1.32 1.32 1.33 1.35 1.32 1.30 1.34 1.34 1.30 1.31 1.33 1.33 1.35 1.36 1.35 1.37 1.43 1.41 1.45 1.46 1.43 1.42 1.41 1.42 1.37 1.37 1.36 1.30 1.34 1.44 1.61 1.61 1.60 1.51 1.50 1.53 1.53 1.43 1.34 1.32 1.37 1.36 1.36 1.36 1.38 1.40 1.39 1.35 1.29 1.22 1.20 1.23 1.24 1.27 1.29 1.30 1.33 1.31 1.33 1.35 1.36 1.34 1.32 1.23 1.19 1.29 1.29 1.13 1.19 1.20 1.17 1.17 1.18 1.21 1.21
1.43 1.41 1.38 1.34 1.33 1.34 1.30 1.30 1.34 1.33 1.34 1.35 1.35 1.36 1.40 1.41 1.42 1.41 1.39 1.32 1.31 1.33 1.34 1.35 1.34 1.36 1.42 1.44 1.44 1.46 1.45 1.42 1.44 1.45 1.39 1.37 1.35 1.34 1.35 1.36 1.45 1.63 1.60 1.57 1.53 1.53 1.55 1.49 1.36 1.36 1.36 1.38 1.36 1.34 1.34 1.38 1.40 1.33 1.25 1.21 1.22 1.21 1.20 1.30 1.29 1.31 1.33 1.31 1.35 1.34 1.36 1.35 1.30 1.14 1.29 1.37 1.37 1.27 1.29 1.25 1.23 1.26 1.27 1.28 1.29
1.38 1.38 1.37 1.35 1.33 1.29 1.31 1.30 1.28 1.28 1.28 1.29 1.29 1.33 1.37 1.41 1.41 1.42 1.41 1.39 1.39 1.37 1.38 1.36 1.36 1.39 1.41 1.44 1.45 1.43 1.46 1.45 1.44 1.44 1.41 1.40 1.42 1.45 1.42 1.41 1.40 1.42 1.46 1.56 1.55 1.54 1.50 1.50 1.42 1.39 1.40 1.41 1.38 1.36 1.38 1.38 1.35 1.32 1.23 1.22 1.23 1.17 1.23 1.28 1.33 1.32 1.37 1.34 1.33 1.38 1.35 1.35 1.28 1.26 1.37 1.44 1.45 1.45 1.37 1.29 1.29 1.29 1.31 1.31 1.32
1.32 1.32 1.29 1.31 1.32 1.29 1.26 1.26 1.23 1.22 1.23 1.23 1.28 1.28 1.29 1.28 1.28 1.37 1.39 1.42 1.42 1.42 1.46 1.43 1.43 1.44 1.46 1.47 1.49 1.50 1.45 1.49 1.47 1.46 1.45 1.47 1.46 1.46 1.46 1.49 1.48 1.45 1.39 1.41 1.49 1.56 1.50 1.40 1.40 1.41 1.43 1.41 1.40 1.39 1.41 1.37 1.36 1.31 1.22 1.23 1.23 1.22 1.31 1.33 1.28 1.34 1.33 1.33 1.37 1.36 1.38 1.31 1.30 1.29 1.38 1.42 1.50 1.52 1.43 1.38 1.40 1.45 1.42 1.35 1.33
1.29 1.28 1.27 1.24 1.29 1.22 1.21 1.25 1.23 1.18 1.10 1.13 1.17 1.21 1.24 1.26 1.29 1.29 1.30 1.39 1.41 1.45 1.47 1.47 1.47 1.50 1.50 1.48 1.47 1.49 1.49 1.49 1.46 1.43 1.40 1.39 1.43 1.47 1.48 1.47 1.46 1.41 1.39 1.40 1.43 1.46 1.52 1.48 1.45 1.38 1.39 1.35 1.34 1.36 1.41 1.40 1.31 1.22 1.24 1.20 1.19 1.25 1.27 1.27 1.30 1.33 1.31 1.32 1.37 1.30 1.34 1.28 1.28 1.29 1.34 1.43 1.42 1.43 1.42 1.43 1.43 1.45 1.51 1.45 1.36
1.20 1.25 1.22 1.22 1.22 1.27 1.15 1.18 1.21 1.17 1.11 1.14 1.20 1.18 1.24 1.26 1.26 1.28 1.34 1.39 1.41 1.47 1.42 1.45 1.50 1.54 1.55 1.53 1.51 1.53 1.53 1.50 1.46 1.41 1.39 1.36 1.37 1.42 1.47 1.50 1.51 1.49 1.45 1.45 1.46 1.44 1.44 1.52 1.47 1.33 1.38 1.38 1.33 1.33 1.37 1.36 1.24 1.15 1.09 1.07 1.11 1.23 1.25 1.27 1.29 1.28 1.32 1.31 1.33 1.32 1.28 1.25 1.27 1.29 1.37 1.38 1.39 1.36 1.36 1.38 1.38 1.45 1.44 1.45 1.43
1.22 1.21 1.22 1.20 1.19 1.21 1.21 1.23 1.19 1.12 1.13 1.14 1.12 1.14 1.20 1.23 1.25 1.33 1.32 1.31 1.40 1.46 1.52 1.51 1.55 1.52 1.53 1.50 1.47 1.48 1.53 1.50 1.42 1.39 1.36 1.35 1.34 1.39 1.46 1.50 1.50 1.50 1.47 1.45 1.44 1.42 1.35 1.41 1.48 1.33 1.31 1.37 1.36 1.36 1.35 1.34 1.21 1.19 1.18 1.08 0.98 0.95 1.09 1.20 1.33 1.30 1.30 1.28 1.30 1.27 1.27 1.25 1.27 1.29 1.35 1.35 1.33 1.34 1.35 1.37 1.37 1.38 1.41 1.38 1.43
1.13 1.14 1.13 1.13 1.17 1.17 1.20 1.20 1.16 1.15 1.16 1.16 1.12 1.17 1.22 1.26 1.29 1.32 1.37 1.37 1.37 1.47 1.51 1.55 1.59 1.52 1.47 1.49 1.45 1.39 1.41 1.44 1.42 1.38 1.34 1.35 1.33 1.34 1.41 1.44 1.51 1.47 1.48 1.44 1.46 1.44 1.37 1.36 1.42 1.36 1.36 1.33 1.34 1.31 1.35 1.35 1.23 1.20 1.02 1.00 1.03 0.99 0.90 1.00 1.10 1.19 1.28 1.25 1.26 1.23 1.26 1.25 1.29 1.31 1.35 1.31 1.32 1.33 1.33 1.37 1.37 1.36 1.37 1.40 1.42
1.09 1.11 1.13 1.12 1.14 1.14 1.17 1.17 1.17 1.16 1.17 1.15 1.14 1.16 1.19 1.20 1.25 1.29 1.36 1.35 1.38 1.38 1.35 1.35 1.39 1.41 1.43 1.41 1.37 1.41 1.40 1.42 1.42 1.39 1.35 1.34 1.35 1.35 1.38 1.43 1.49 1.50 1.53 1.45 1.43 1.43 1.41 1.40 1.45 1.41 1.40 1.30 1.26 1.29 1.32 1.36 1.29 1.33 1.18 1.04 0.98 0.92 0.91 1.03 1.05 1.09 1.23 1.23 1.21 1.22 1.22 1.21 1.25 1.28 1.30 1.31 1.33 1.31 1.31 1.34 1.35 1.36 1.34 1.36 1.39
1.10 1.14 1.17 1.16 1.15 1.13 1.15 1.16 1.17 1.17 1.15 1.18 1.20 1.20 1.19 1.17 1.16 1.16 1.15 1.19 1.19 1.21 1.19 1.17 1.17 1.26 1.29 1.39 1.41 1.44 1.44 1.43 1.42 1.41 1.40 1.38 1.36 1.37 1.39 1.41 1.44 1.47 1.49 1.46 1.47 1.49 1.41 1.34 1.42 1.47 1.45 1.36 1.34 1.27 1.24 1.39 1.37 1.29 1.28 1.26 1.23 1.00 1.00 1.11 1.03 0.88 1.21 1.24 1.22 1.26 1.22 1.23 1.25 1.26 1.29 1.29 1.28 1.29 1.31 1.31 1.29 1.33 1.34 1.32 1.41
1.07 1.14 1.15 1.16 1.17 1.17 1.17 1.17 1.15 1.15 1.16 1.15 1.18 1.18 1.14 1.14 1.14 1.13 1.13 1.13 1.12 1.20 1.26 1.26 1.24 1.26 1.29 1.30 1.35 1.39 1.43 1.41 1.41 1.41 1.39 1.40 1.39 1.39 1.42 1.45 1.45 1.48 1.50 1.49 1.46 1.47 1.46 1.38 1.41 1.55 1.47 1.47 1.33 1.24 1.24 1.29 1.34 1.29 1.27 1.28 1.29 1.27 1.26 1.08 0.96 1.03 0.98 1.12 1.23 1.17 1.16 1.23 1.22 1.21 1.23 1.26 1.28 1.27 1.27 1.36 1.29 1.36 1.32 1.33 1.36
1.06 1.10 1.11 1.12 1.11 1.13 1.15 1.16 1.17 1.17 1.21 1.19 1.13 1.17 1.15 1.16 1.14 1.13 1.13 1.10 1.11 1.11 1.17 1.21 1.25 1.24 1.26 1.29 1.32 1.35 1.36 1.37 1.36 1.36 1.38 1.39 1.40 1.41 1.45 1.47 1.47 1.48 1.53 1.55 1.53 1.52 1.50 1.47 1.42 1.52 1.46 1.44 1.39 1.28 1.27 1.30 1.18 1.17 1.31 1.28 1.29 1.22 1.24 1.24 1.19 1.07 1.01 0.95 1.00 1.16 1.17 1.19 1.20 1.22 1.27 1.27 1.26 1.25 1.26 1.29 1.28 1.30 1.29 1.33 1.37
1.05 1.06 1.09 1.11 1.11 1.11 1.09 1.09 1.09 1.13 1.18 1.20 1.18 1.14 1.11 1.09 1.08 1.08 1.07 1.11 1.12 1.13 1.17 1.19 1.17 1.21 1.20 1.24 1.27 1.30 1.32 1.33 1.34 1.35 1.38 1.40 1.42 1.41 1.44 1.47 1.44 1.49 1.58 1.58 1.59 1.55 1.48 1.43 1.41 1.49 1.44 1.47 1.45 1.40 1.36 1.30 1.28 1.27 1.29 1.27 1.23 1.17 1.22 1.16 1.19 1.16 1.06 0.94 0.95 1.01 1.03 1.16 1.16 1.19 1.21 1.27 1.33 1.31 1.31 1.26 1.32 1.31 1.27 1.29 1.33
1.01 1.04 1.07 1.08 1.07 1.07 1.05 1.05 1.03 1.06 1.10 1.11 1.13 1.14 1.15 1.16 1.13 1.12 1.10 1.10 1.12 1.12 1.14 1.13 1.15 1.19 1.16 1.19 1.22 1.24 1.23 1.27 1.34 1.37 1.36 1.38 1.38 1.39 1.42 1.42 1.45 1.50 1.55 1.57 1.59 1.54 1.51 1.49 1.48 1.53 1.53 1.51 1.48 1.46 1.41 1.38 1.37 1.39 1.35 1.29 1.20 1.19 1.15 1.09 1.12 1.13 1.06 1.08 0.93 0.98 1.02 0.99 0.95 1.07 1.20 1.23 1.29 1.27 1.29 1.30 1.25 1.27 1.27 1.28 1.34
0.96 0.99 1.01 1.02 1.03 1.03 1.02 1.01 1.03 1.05 1.06 1.07 1.09 1.11 1.14 1.13 1.11 1.10 1.07 1.05 1.06 1.07 1.07 1.10 1.15 1.16 1.14 1.16 1.21 1.23 1.26 1.25 1.30 1.33 1.32 1.34 1.34 1.39 1.41 1.41 1.42 1.55 1.65 1.67 1.57 1.54 1.53 1.50 1.49 1.53 1.53 1.47 1.44 1.46 1.47 1.39 1.46 1.40 1.37 1.31 1.23 1.18 1.09 1.05 1.10 1.10 1.03 0.97 0.96 0.93 1.04 1.05 1.01 0.99 1.12 1.22 1.26 1.28 1.25 1.27 1.24 1.22 1.26 1.25 1.30
Wind_Speed
4 4 5 5 5 4 4 4 4 5 4 4 4 3 3 2 2 1 1 1 2 3 4 5 6 6 7 8 8 9 10 10 10 10 10 11 11 11 11 11 11 10 10 9 9 8 8 8 8 8 8 8 8 9 9 9 9 9 9 9 9 9 9 9 8 8 8 8 8 8 8 8 8 8 8 8 8 8 9 8 8 9 9 9 10
5 5 5 5 5 5 5 5 5 5 5 4 4 4 3 3 2 2 1 1 2 3 4 4 5 6 7 7 8 9 9 10 10 10 10 10 11 11 11 11 10 10 10 10 9 9 8 8 8 8 8 8 9 8 8 9 9 9 9 8 8 8 8 8 8 8 8 8 8 8 8 8 8 8 8 8 8 9 9 8 8 9 9 9 9
5 5 5 6 5 5 5 5 5 5 5 5 4 4 3 3 3 2 1 1 2 2 3 3 4 5 6 7 7 8 9 9 9 9 9 10 10 11 11 11 10 10 10 10 9 9 9 9 9 9 9 9 8 8 8 8 9 8 8 8 8 8 8 8 8 8 8 8 8 8 8 8 8 8 8 8 8 8 8 8 8 9 9 9 9
5 5 6 6 5 5 5 6 6 5 5 5 4 4 4 3 3 2 2 2 2 3 3 3 3 4 5 6 7 8 8 9 9 9 9 10 10 11 11 10 10 10 10 10 9 9 9 9 9 9 9 8 8 8 8 8 8 8 8 8 8 8 8 8 8 8 7 7 7 7 7 7 7 7 7 7 8 8 8 8 9 9 9 9 10
4 5 6 6 5 5 6 6 6 6 6 5 5 5 4 4 3 3 3 3 2 3 2 2 3 3 5 5 6 7 7 8 8 8 9 9 10 10 10 10 10 10 10 10 10 9 9 9 9 9 8 8 8 8 8 8 8 8 8 8 8 7 7 7 7 7 7 7 7 7 7 7 7 7 7 7 8 8 8 9 9 9 9 10 10
4 5 6 6 6 6 6 7 7 6 6 6 5 5 5 4 4 4 3 3 3 3 3 2 2 3 4 5 5 6 7 7 7 7 8 9 9 9 9 10 10 10 10 10 10 9 9 9 9 9 8 8 8 8 8 8 8 8 8 7 7 7 7 6 6 7 6 6 6 6 7 7 7 7 7 8 8 8 8 9 9 10 10 10 10
4 5 6 6 6 6 6 7 7 7 6 6 6 5 5 5 5 4 4 4 4 3 3 3 2 2 3 4 4 5 6 6 6 7 8 8 9 9 9 10 10 10 10 10 9 9 9 9 9 9 8 8 8 8 8 8 8 7 7 7 7 6 6 6 6 6 6 5 6 6 7 8 7 8 8 8 8 9 9 9 10 10 10 10 10
4 5 6 6 6 6 6 7 7 7 7 7 6 6 5 5 5 5 5 4 4 4 4 3 3 3 3 3 3 4 5 5 5 6 7 7 8 9 9 10 10 10 9 9 9 9 9 9 9 8 8 8 8 8 8 7 7 7 7 6 6 6 6 7 7 7 6 6 6 7 8 8 8 8 9 9 9 10 10 10 10 10 10 10 10
4 5 6 5 6 6 7 7 7 7 7 7 7 6 6 5 5 5 5 5 4 4 4 3 3 3 2 2 2 3 4 4 4 5 5 6 7 8 9 9 9 9 9 9 9 9 9 9 9 8 8 8 8 8 7 7 7 7 7 7 7 7 7 8 8 8 7 8 8 8 9 9 9 9 10 10 10 10 10 10 10 10 10 10 10
5 5 6 5 6 7 7 7 7 7 7 7 7 6 6 6 6 6 6 5 5 4 4 3 3 3 2 2 2 2 3 3 4 4 4 5 6 7 8 8 8 8 8 8 8 8 8 8 8 8 8 8 8 8 8 8 8 7 8 7 8 8 9 9 8 9 9 9 9 10 11 11 10 10 10 10 10 10 10 10 10 10 10 10 10
5 5 6 6 7 7 7 7 7 7 7 7 7 6 6 6 6 6 6 6 5 5 4 4 4 3 3 3 2 2 2 2 3 3 3 3 5 6 7 7 7 8 8 7 8 8 8 8 8 8 8 8 8 8 8 8 8 8 8 8 8 9 9 8 8 9 10 11 11 11 11 11 11 10 10 10 10 10 10 10 10 9 9 9 9
5 6 6 6 7 7 7 7 7 7 7 7 7 7 7 7 7 7 6 6 6 6 5 5 4 4 4 3 3 2 2 1 1 1 1 2 4 5 5 6 6 7 7 7 7 7 7 7 7 7 8 8 8 8 7 7 7 7 7 7 8 8 8 7 8 9 10 11 11 10 10 10 10 10 10 10 9 9 9 9 9 9 8 8 8
5 6 6 6 8 8 7 7 8 8 8 7 7 7 7 7 7 7 7 7 7 6 6 5 5 5 4 3 3 2 1 1 0 0 0 1 3 4 4 5 6 6 6 6 6 6 7 7 7 7 7 7 7 7 7 7 7 7 7 7 7 8 8 8 9 9 10 10 10 10 9 9 10 10 9 9 9 9 8 8 8 8 7 7 7
5 5 6 7 8 8 8 8 8 8 8 8 7 8 7 7 7 7 7 7 7 7 6 6 5 5 5 4 3 3 2 2 1 1 1 1 2 3 4 4 5 5 5 5 5 5 6 6 6 6 6 7 7 7 7 7 7 7 7 7 7 8 8 8 9 9 9 9 9 9 8 9 9 9 8 8 8 8 8 7 7 7 7 6 6
5 6 6 7 8 8 8 8 8 8 7 7 7 7 7 7 7 7 7 7 7 7 7 6 6 6 5 4 4 3 3 3 3 2 2 2 2 3 3 3 4 4 4 4 5 5 5 5 5 5 5 6 6 6 6 6 6 6 6 7 7 7 6 7 8 8 8 8 8 8 8 8 8 7 7 7 7 7 7 6 6 6 6 6 6
6 6 6 7 8 8 8 8 8 8 7 7 7 7 7 7 7 7 7 8 8 7 7 7 6 6 6 5 4 4 4 4 4 4 3 3 3 3 3 3 3 3 3 3 4 4 4 4 4 4 5 5 5 6 6 6 6 6 6 6 6 6 6 6 7 7 7 7 7 7 7 7 7 6 6 6 6 6 6 5 5 5 5 5 5
6 6 6 7 8 9 8 8 8 8 7 7 7 7 7 7 7 7 8 8 8 8 7 7 7 7 7 6 5 5 5 5 5 5 5 4 4 4 3 2 2 2 2 2 3 3 3 3 3 3 4 4 4 5 5 5 5 5 5 5 6 6 6 6 6 6 6 6 5 5 6 6 6 6 5 5 5 5 5 4 4 4 4 4 4
7 7 7 7 8 9 9 8 8 8 8 8 8 8 8 8 8 8 8 8 8 8 8 8 8 8 8 7 6 6 6 6 6 6 6 5 5 4 4 3 2 1 2 2 2 2 2 2 2 3 3 3 3 4 4 4 4 5 5 5 5 6 6 5 5 5 5 5 4 4 5 5 5 4 4 4 4 4 4 3 3 3 3 3 4
7 7 8 8 9 9 9 9 9 9 8 8 8 8 8 8 8 8 8 9 9 9 9 8 8 8 8 8 7 7 6 6 7 7 7 6 6 5 5 4 3 2 2 2 2 1 1 1 1 2 2 2 2 3 3 3 4 4 4 4 4 5 4 4 4 4 4 3 3 3 3 3 3 3 3 3 3 3 3 3 3 3 3 3 3
7 8 9 9 9 9 8 9 8 8 8 8 8 8 8 8 8 9 9 9 9 9 9 9 9 9 9 9 8 7 7 7 7 8 8 7 7 6 6 5 5 4 3 3 3 2 2 1 0 1 1 2 2 2 2 3 3 3 3 3 3 3 3 2 3 3 2 2 3 3 2 2 2 2 2 2 2 2 2 2 2 2 3 3 3
8 9 9 9 9 8 8 8 8 7 7 7 8 8 8 8 8 8 9 10 10 10 9 9 9 9 9 9 9 8 8 8 8 8 8 8 8 7 7 7 7 6 5 4 4 3 3 2 1 1 0 1 1 1 2 2 2 1 1 1 1 1 2 1 2 2 1 2 2 2 1 1 1 1 1 2 2 2 2 2 2 3 3 3 4
9 9 10 10 9 9 9 9 8 8 8 8 9 9 9 9 9 9 10 10 10 10 10 10 10 10 10 10 10 9 9 9 9 9 9 9 9 8 8 8 8 8 7 6 5 5 4 4 3 2 1 1 1 1 1 2 1 1 0 0 1 1 0 1 1 1 1 1 1 1 1 1 1 1 2 2 3 3 3 3 3 3 4 4 4
9 10 10 10 10 10 10 10 10 9 9 9 9 10 10 10 10 10 10 10 10 10 10 10 10 11 11 10 10 9 9 9 9 9 10 10 9 10 10 10 10 9 8 7 7 6 6 5 5 4 3 3 3 2 2 3 2 2 2 2 2 1 1 0 1 0 1 1 0 1 1 2 2 2 3 3 4 4 4 5 5 5 5 5 5
10 10 10 10 11 11 11 11 10 10 10 10 10 10 10 10 10 10 10 10 11 11 11 10 10 11 10 10 9 9 10 10 10 10 10 10 10 11 11 11 11 11 10 9 8 8 7 7 7 6 5 5 5 5 4 4 4 3 3 3 2 2 2 2 2 2 2 2 2 3 3 3 4 4 5 5 5 6 6 6 6 6 6 6 6
10 9 10 11 11 11 11 11 11 11 11 10 10 10 10 10 11 10 10 11 11 11 11 10 10 11 10 10 10 10 10 10 11 10 10 10 11 11 12 12 12 12 11 10 10 9 9 8 8 8 7 7 7 6 6 6 6 5 4 4 4 4 4 3 3 3 3 3 3 4 4 5 5 6 6 6 7 7 7 7 7 7 7 7 7
9 10 10 10 11 11 11 12 11 12 11 10 10 10 11 11 11 11 11 11 12 11 10 10 10 11 10 10 10 10 10 11 11 11 11 11 11 11 12 12 13 13 12 11 11 10 10 10 10 10 9 8 8 8 7 7 7 6 5 5 5 5 5 4 4 4 4 5 5 5 6 6 7 7 7 8 8 8 8 8 8 8 8 8 8
9 10 10 11 11 12 11 11 11 11 11 10 10 11 11 11 10 10 11 11 11 10 10 10 10 11 11 10 10 11 11 11 12 12 12 11 11 11 11 12 13 14 13 12 12 12 11 11 11 11 10 9 9 9 8 8 8 7 7 6 6 6 6 5 5 5 5 6 6 6 7 7 8 8 8 9 9 9 9 9 9 9 9 9 9
9 9 10 11 11 11 10 10 10 11 11 11 11 11 10 9 9 10 10 9 10 9 9 9 10 10 10 10 10 11 11 11 12 12 12 12 12 11 11 12 12 13 14 13 13 13 12 13 13 13 12 11 10 10 10 9 9 8 8 7 7 7 7 6 6 6 6 6 7 7 8 8 8 9 9 9 9 9 9 9 9 9 9 9 9
9 9 10 10 9 9 9 9 10 11 12 10 9 9 8 8 8 9 9 9 9 9 9 10 10 10 10 11 11 11 10 11 11 12 12 12 12 12 12 12 12 13 14 14 14 13 13 13 13 13 13 12 12 11 11 10 10 10 9 8 8 8 8 7 7 7 7 7 7 8 8 8 8 9 9 9 9 9 9 9 9 8 8 8 8
8 8 8 9 8 8 8 10 11 11 11 9 8 9 9 9 9 9 9 10 10 10 10 10 10 10 11 11 12 11 11 11 12 12 13 13 12 12 12 12 13 13 13 14 14 14 14 14 14 14 13 13 12 12 12 12 11 11 10 9 9 9 9 8 8 8 8 7 8 9 8 8 8 8 9 9 9 8 8 8 8 7 7 7 7
8 8 8 9 9 9 10 10 11 10 10 10 10 10 10 10 10 10 10 11 11 11 11 11 11 11 11 12 12 12 12 12 13 13 13 13 14 13 12 13 13 13 14 14 14 15 15 14 14 14 14 14 13 13 13 13 12 12 11 10 10 10 9 9 9 9 8 8 8 9 8 8 9 9 9 8 8 8 7 7 7 6 6 6 6
8 9 8 9 9 10 10 10 10 10 10 11 10 10 10 10 10 11 11 11 11 11 11 11 11 12 12 12 13 13 13 13 13 13 13 14 15 14 14 13 13 14 14 14 15 15 15 15 15 15 15 14 14 14 14 14 13 13 12 11 11 10 10 10 10 9 9 9 8 8 8 8 8 9 8 8 8 7 7 7 6 6 5 5 4
9 9 9 9 9 9 10 11 11 11 11 11 11 11 11 11 11 11 11 11 12 11 11 11 12 12 12 13 13 14 14 14 14 14 14 15 15 15 15 14 14 14 14 15 15 16 16 16 15 15 15 15 14 14 14 14 14 13 13 12 12 11 11 11 10 10 9 9 8 8 8 8 8 8 8 7 7 7 7 6 6 5 5 4 4
9 9 10 10 9 9 10 11 11 11 11 12 12 12 11 11 12 12 12 12 12 12 12 12 12 12 13 13 14 14 15 15 15 15 16 16 16 17 17 16 15 14 15 16 16 16 16 16 15 15 15 15 15 15 15 15 14 14 13 13 12 12 12 11 11 10 10 9 9 8 9 8 8 8 7 7 7 7 6 6 5 5 4 4 4
9 10 10 10 10 9 10 10 11 11 12 12 12 12 12 12 12 12 13 12 12 12 12 12 13 13 14 14 15 15 15 16 16 16 16 17 17 17 18 18 17 16 16 16 16 17 17 16 16 15 16 16 15 15 15 15 15 14 14 13 13 13 12 11 11 11 10 9 9 9 9 8 8 7 7 7 6 6 6 5 5 4 4 4 4
9 9 9 9 10 10 10 11 11 12 12 13 13 13 13 13 13 13 13 13 13 13 13 14 14 14 15 15 15 16 16 16 17 17 17 18 18 18 18 19 19 18 17 17 17 17 17 17 17 16 16 16 16 16 16 15 15 14 14 14 13 13 12 12 11 11 10 10 9 9 9 8 8 7 7 7 6 6 5 5 4 4 4 4 3
9 9 9 9 10 10 11 11 12 12 13 13 13 13 13 13 14 14 14 14 15 15 15 15 16 16 16 16 16 17 17 17 17 17 18 18 19 19 19 20 21 19 18 18 18 17 17 17 17 17 17 17 16 16 16 15 15 15 15 14 13 13 12 12 12 11 11 10 10 9 9 8 8 7 7 6 6 5 5 5 4 4 4 4 3
9 9 9 9 10 10 11 11 12 12 12 12 13 13 14 14 14 15 15 15 15 16 16 16 16 16 16 17 17 17 18 18 18 18 19 19 20 20 20 20 21 21 20 19 18 18 18 18 18 18 18 17 17 16 16 16 15 15 15 15 14 13 13 12 12 12 11 11 10 9 9 8 8 7 7 6 6 5 4 4 4 4 4 4 4
9 10 9 9 10 10 11 11 11 12 12 12 13 14 14 14 15 15 16 16 17 17 17 17 17 17 17 18 18 18 19 19 19 19 19 20 20 21 21 20 21 22 21 20 20 19 19 19 19 18 18 18 17 17 17 16 16 16 15 15 14 14 13 12 12 12 11 11 10 10 9 8 8 7 7 6 6 5 5 4 4 5 5 5 5
9 9 9 10 10 11 11 11 11 12 12 13 13 14 14 14 15 16 16 17 18 18 18 19 19 19 18 19 19 19 19 19 20 20 21 21 21 22 22 22 22 22 22 22 21 20 20 20 20 19 19 18 18 17 17 17 16 16 15 15 14 14 13 13 12 12 12 11 11 10 9 9 8 7 7 6 6 5 5 5 5 5 5 5 5
9 9 9 10 11 11 11 11 11 11 12 13 13 14 14 15 15 16 17 17 18 19 19 19 19 19 19 19 20 20 20 20 20 21 21 22 23 23 23 23 23 23 22 22 22 22 22 22 21 20 20 19 18 17 17 17 16 16 15 15 15 14 13 13 13 13 12 11 11 11 10 9 8 7 7 7 6 6 6 5 5 5 5 5 5
8 9 10 10 11 11 11 11 11 11 12 13 13 14 15 15 15 16 16 17 18 18 18 18 19 19 19 20 20 21 21 21 21 21 22 23 23 24 23 23 23 23 23 23 23 23 23 23 22 21 21 20 19 18 18 17 17 16 15 15 14 14 14 14 13 13 12 12 11 11 11 10 9 8 8 8 7 7 6 6 5 5 5 5 5
8 9 9 10 10 10 11 11 11 12 12 13 13 14 14 15 15 16 16 17 17 17 17 18 18 19 19 20 20 21 22 22 22 22 22 23 23 24 24 24 24 24 24 24 24 24 24 25 24 22 21 21 20 19 19 19 17 16 15 15 14 14 14 14 14 13 13 12 12 12 12 11 10 9 8 8 8 7 7 6 6 5 5 5 5
8 9 10 10 10 10 11 12 12 12 13 13 13 14 14 15 15 16 16 17 17 17 17 17 18 19 20 20 20 21 22 23 23 23 23 23 24 24 25 25 25 24 24 24 24 23 24 25 25 24 22 21 21 20 20 20 19 17 15 14 14 13 13 13 13 13 13 13 13 12 12 11 11 10 9 8 8 8 7 7 6 5 5 5 6
9 10 11 11 11 11 11 12 12 13 13 13 13 13 14 14 15 16 17 17 17 17 17 17 18 18 19 20 21 21 22 23 23 24 24 24 24 25 26 26 26 25 24 24 24 24 24 25 25 25 23 22 21 20 19 20 20 18 16 15 13 13 13 12 12 13 13 13 13 13 12 12 11 11 10 9 9 8 8 7 7 6 6 6 6
10 11 11 11 11 11 12 12 13 13 13 13 13 13 14 14 15 16 17 17 17 17 17 18 19 19 20 20 21 21 22 23 23 24 24 25 25 26 26 26 26 26 26 25 25 24 24 24 26 25 24 23 21 20 19 20 20 19 18 16 15 13 13 12 12 12 12 13 13 13 13 12 12 12 11 10 9 9 8 8 7 7 6 6 6
11 12 12 12 12 12 13 13 13 13 13 13 13 14 14 15 15 16 16 17 17 18 18 19 20 21 21 22 22 22 22 23 23 24 25 25 25 26 26 26 26 26 27 26 25 25 24 24 25 25 24 23 22 20 19 20 20 19 19 18 17 15 13 13 12 11 11 12 13 13 13 13 12 12 12 11 10 9 9 8 8 7 7 6 7
12 12 12 12 13 13 13 13 13 13 13 13 14 14 15 15 16 16 16 17 18 18 19 20 21 21 22 22 23 23 23 23 24 24 25 25 25 25 25 26 26 26 26 27 27 26 25 25 26 25 24 23 22 21 20 20 20 20 20 19 18 17 15 14 14 13 12 12 12 13 13 13 13 13 13 12 11 10 10 9 8 8 8 7 7
12 12 12 12 12 13 13 13 13 13 13 13 14 15 15 16 16 17 17 17 18 19 20 20 21 22 22 23 24 24 23 24 24 24 24 25 25 25 25 25 26 26 25 25 25 25 25 25 26 25 24 23 23 22 22 22 21 20 19 19 19 18 17 16 15 15 14 13 12 13 13 13 13 13 13 13 11 11 10 10 9 9 8 8 8
12 12 12 12 12 12 13 13 13 14 14 15 15 15 16 16 17 17 18 18 19 20 20 21 22 23 23 24 24 25 24 24 24 24 24 24 25 25 24 24 24 24 24 23 23 23 24 25 25 25 25 24 23 23 23 23 22 20 19 19 19 18 18 17 16 16 15 13 13 13 13 13 13 13 14 13 12 12 11 11 10 10 9 9 9
12 12 12 12 12 12 13 13 13 14 15 15 16 16 17 17 18 18 19 20 20 21 22 23 23 24 25 25 25 25 25 25 25 24 24 23 23 23 23 22 22 22 22 22 21 21 23 25 25 25 25 24 24 24 24 23 22 21 20 20 19 19 18 17 17 16 15 14 13 13 14 14 14 13 14 14 13 12 12 12 11 10 10 10 9
Wind_Direction
228 228 226 223 227 224 223 224 218 205 199 198 195 191 192 193 192 190 187 353 6 6 10 14 19 22 21 20 22 24 23 22 23 27 29 30 29 29 31 32 33 34 37 43 46 50 52 53 56 58 60 62 64 66 69 71 72 74 75 75 75 73 73 72 69 68 66 65 65 64 62 63 66 67 69 69 67 65 65 65 63 63 64 64 65
218 224 222 222 227 223 221 216 213 205 202 200 198 193 193 196 195 199 219 307 345 353 3 10 16 19 17 18 21 22 22 23 25 29 30 30 29 29 30 32 34 37 43 48 51 53 55 57 58 61 63 64 66 68 72 73 74 75 75 76 76 74 72 71 70 69 66 65 64 63 63 65 66 67 67 68 67 65 64 64 63 63 65 66 66
207 226 221 219 225 223 218 209 209 206 204 203 200 196 197 202 204 216 244 287 322 340 352 2 10 13 11 14 19 21 21 24 27 30 31 30 29 29 31 34 38 43 49 53 55 56 57 59 61 63 64 65 68 71 74 75 76 75 76 77 76 74 72 72 71 68 65 64 65 65 65 66 67 67 66 66 66 65 64 64 65 66 68 67 68
205 228 221 217 223 222 214 204 205 205 207 205 204 202 204 211 217 231 254 278 302 322 335 349 1 5 7 12 17 19 20 25 29 31 32 30 29 30 33 37 42 47 53 55 57 58 57 60 62 64 64 66 70 73 76 76 76 76 77 77 75 73 72 70 67 64 64 65 68 66 62 64 66 67 67 67 68 67 66 67 69 70 71 70 70
210 224 218 217 222 219 209 201 202 204 208 207 208 208 211 219 228 240 255 271 287 302 314 331 350 360 2 7 14 17 20 26 29 31 31 30 30 34 38 41 46 51 55 57 59 59 58 60 62 63 64 66 71 75 76 77 77 77 77 75 72 71 69 66 63 63 65 67 67 62 61 65 67 69 70 70 71 70 71 71 71 73 75 75 75
212 218 215 217 220 214 205 201 201 204 208 208 210 212 218 225 234 243 252 265 275 282 295 311 333 351 355 2 11 14 18 27 29 29 31 31 33 37 42 46 50 53 56 58 59 59 59 59 61 62 64 67 71 75 76 77 77 76 74 70 67 66 63 60 61 63 63 63 62 58 63 68 68 73 73 74 76 75 75 75 76 77 78 78 78
214 218 214 217 216 209 202 201 201 206 209 210 213 215 222 228 236 243 250 261 269 272 282 295 307 326 340 353 5 11 16 26 28 30 31 34 38 42 47 51 53 55 58 59 58 57 57 58 60 62 63 67 71 74 76 76 75 74 69 64 62 60 59 59 62 62 59 57 61 63 69 72 72 77 79 80 80 79 80 80 81 81 80 79 79
220 220 214 214 210 202 199 201 203 207 211 213 215 219 224 230 237 243 251 257 263 268 273 279 284 298 318 338 356 6 13 22 27 30 32 37 44 47 51 53 55 56 58 59 58 57 56 57 59 61 62 67 71 72 73 73 73 71 65 62 61 60 62 66 66 62 60 64 69 72 77 79 78 82 84 84 84 83 84 83 83 82 82 80 80
221 216 211 212 206 198 198 203 205 209 212 215 216 220 224 229 235 242 249 253 258 262 265 267 271 279 296 319 340 357 6 16 23 30 35 44 49 51 52 53 54 54 56 58 58 56 55 57 59 60 62 67 69 70 71 72 71 68 64 63 64 69 72 72 69 62 66 73 75 78 82 84 84 85 86 87 87 85 85 84 85 84 83 81 81
217 212 209 214 208 199 200 204 208 210 212 215 217 220 224 229 234 241 246 247 252 253 253 258 264 266 274 291 310 336 354 7 17 28 42 52 50 51 51 51 52 51 53 55 56 55 53 55 59 60 61 66 68 70 71 73 72 69 66 66 71 76 75 74 69 67 74 79 80 84 85 86 87 88 89 89 87 87 87 86 86 85 85 83 82
212 213 213 216 207 200 203 206 208 211 213 217 219 222 225 229 234 239 242 242 245 244 245 254 261 258 258 266 281 309 335 359 15 31 51 56 49 48 47 48 48 46 48 49 52 53 51 53 58 60 61 64 68 70 72 73 73 70 67 70 76 78 76 71 69 75 81 84 86 89 88 86 88 89 90 89 88 88 88 87 86 86 85 84 81
209 211 215 214 205 203 207 209 211 213 216 218 220 224 227 230 234 236 239 240 240 240 244 255 259 251 246 251 266 288 311 353 15 36 59 55 44 40 40 44 43 42 43 43 46 48 49 51 55 59 61 64 66 68 70 72 72 69 69 74 79 80 75 67 73 83 85 86 89 90 90 89 89 91 90 89 88 89 88 86 85 85 84 82 80
206 207 212 210 205 207 210 212 215 217 218 221 223 226 228 230 232 234 236 237 238 240 244 251 254 243 236 242 256 263 259 271 337 38 76 46 30 27 29 35 36 36 38 39 42 46 48 49 54 59 61 63 64 66 68 70 71 68 71 78 82 82 75 69 79 86 85 88 91 91 91 91 91 92 90 88 88 88 88 86 84 83 82 79 77
204 207 211 208 206 209 214 217 219 221 222 224 227 227 229 230 231 234 236 237 238 240 242 246 247 237 232 238 243 240 233 233 235 235 255 317 357 5 11 22 28 30 34 37 39 45 50 51 55 59 62 64 64 66 68 71 71 70 76 82 84 80 71 72 83 87 87 89 91 92 91 92 93 92 90 88 88 88 87 86 84 81 78 75 72
206 208 213 210 207 210 217 221 223 224 226 228 229 230 231 232 233 235 236 236 237 238 239 241 241 236 235 238 236 230 228 232 233 235 250 278 311 340 355 5 15 25 30 32 35 42 49 53 55 60 63 65 68 70 72 74 73 75 81 83 81 76 68 76 88 89 90 90 91 92 92 92 92 91 89 88 87 88 87 85 82 78 74 70 67
209 209 216 215 210 214 219 224 226 227 230 231 232 233 234 234 234 235 236 235 235 237 238 239 238 238 238 240 238 230 231 233 233 235 247 268 288 312 331 342 358 18 24 23 32 38 43 51 55 59 63 67 73 75 76 77 76 79 82 82 80 76 69 78 91 91 90 91 91 92 92 91 90 89 88 87 86 86 84 82 78 74 69 65 61
213 213 219 220 215 218 222 225 228 230 232 233 234 235 236 235 234 234 234 233 234 234 236 238 237 238 240 240 241 236 236 236 234 237 247 262 275 285 297 313 331 359 12 13 25 33 35 45 54 60 63 70 77 79 81 79 79 80 77 79 82 80 73 78 90 91 90 90 89 89 90 90 87 86 83 82 81 80 78 75 71 66 61 58 53
216 218 222 224 222 223 225 226 229 232 233 235 237 238 238 236 235 234 232 231 232 233 234 237 237 238 239 239 242 242 242 240 237 238 245 256 266 272 275 282 289 307 338 354 10 21 23 33 48 58 66 72 80 84 86 85 84 83 80 83 86 84 76 77 87 89 87 89 92 91 89 88 84 81 77 76 74 71 69 65 59 52 49 45 39
219 224 226 229 228 227 227 229 232 232 233 237 239 240 240 236 235 233 231 230 230 233 234 236 238 240 240 239 240 243 246 244 241 241 245 251 258 264 263 262 260 269 294 312 328 341 352 8 31 50 68 75 83 87 91 93 91 92 92 93 89 76 61 64 83 87 87 91 94 92 90 86 81 77 73 69 64 59 55 50 43 33 27 21 16
225 228 231 234 231 228 229 236 235 232 233 238 238 236 236 234 233 232 230 230 229 232 234 236 239 239 238 238 238 241 248 249 246 245 246 248 251 255 254 251 252 258 273 284 291 295 297 295 315 44 74 84 92 95 99 103 102 104 100 102 93 58 35 54 79 80 85 94 92 92 92 86 75 68 58 48 43 37 30 25 18 7 0 356 354
230 233 236 238 236 233 236 242 237 233 236 237 235 232 230 228 227 229 229 229 229 230 233 236 236 236 236 237 238 241 248 252 252 249 246 247 248 250 249 247 249 254 263 271 274 274 270 262 248 238 133 118 123 120 123 131 131 119 103 109 91 29 23 52 66 64 64 75 81 85 76 57 41 32 14 3 357 349 349 346 343 339 337 337 338
233 237 240 241 242 241 243 246 241 239 239 236 237 234 230 228 229 231 230 228 229 231 233 234 234 235 236 237 241 244 248 251 251 251 249 249 248 248 248 246 247 249 255 261 264 263 259 252 243 240 226 201 181 175 174 174 187 209 219 262 315 314 344 20 37 63 53 51 67 67 24 351 331 328 325 324 322 320 320 319 321 320 319 321 324
236 240 242 244 246 246 245 245 242 241 240 239 240 236 234 234 234 234 233 230 230 232 233 233 233 233 235 238 242 246 250 249 247 249 250 250 249 249 248 245 244 246 250 254 258 257 253 247 241 240 237 230 225 229 225 211 221 245 271 291 281 268 261 300 321 297 268 277 316 289 294 298 298 299 299 302 303 304 304 305 308 309 307 308 312
239 241 243 247 248 248 245 243 243 242 242 242 242 239 239 239 238 238 238 234 232 233 232 233 235 235 237 239 241 247 252 250 247 247 248 248 248 248 247 244 242 244 245 249 254 253 250 246 240 240 243 246 244 243 239 236 245 265 281 279 261 262 269 268 268 270 268 268 272 273 280 286 288 288 288 290 291 293 294 296 298 300 300 300 303
240 242 245 248 248 248 245 244 243 243 245 244 245 244 243 244 243 242 241 237 234 235 236 239 242 243 244 243 244 249 252 252 248 247 248 247 246 245 245 243 242 242 243 247 251 250 248 245 240 241 248 250 247 246 246 248 256 266 271 265 261 264 265 265 263 267 270 269 269 271 276 282 286 286 287 287 287 288 289 291 292 292 293 294 296
242 243 245 249 249 248 246 246 243 244 248 247 248 248 246 248 248 247 244 239 236 241 244 245 250 252 251 250 251 253 254 255 252 250 249 247 244 243 244 243 241 241 242 245 247 247 247 245 242 243 249 250 246 248 250 250 255 259 261 264 266 264 265 268 267 269 271 269 269 273 278 282 286 288 290 291 290 289 289 289 289 290 289 290 290
244 244 248 251 249 247 247 246 244 246 250 251 253 252 251 252 252 251 244 238 240 247 249 247 254 256 254 255 258 257 256 258 256 252 250 248 246 243 244 243 242 241 241 243 246 246 246 245 244 246 250 249 245 247 249 250 254 255 258 264 266 265 266 268 268 270 272 273 272 276 283 285 288 290 292 293 291 291 291 288 287 288 287 286 286
243 246 251 251 248 248 246 245 251 258 259 257 256 257 257 255 257 256 246 243 248 251 251 253 256 255 255 259 262 261 260 261 260 258 255 252 249 244 242 241 242 244 241 241 246 246 246 246 245 247 251 249 244 244 247 249 252 254 258 262 264 265 264 266 268 269 272 275 274 279 285 286 289 292 293 293 292 292 292 289 287 287 285 285 284
245 249 254 255 256 256 253 259 270 274 268 258 255 263 266 263 267 264 257 257 260 259 262 266 265 263 264 265 265 266 267 267 267 267 262 256 251 246 243 242 244 245 241 241 245 247 247 247 247 248 250 248 244 243 245 247 250 253 257 260 262 262 262 264 266 268 270 271 274 280 284 286 290 293 294 294 295 294 291 289 289 288 287 287 284
248 253 260 264 270 271 272 278 282 281 273 268 273 279 276 273 273 267 263 265 267 269 272 274 274 274 273 271 271 271 272 272 272 272 267 260 255 249 247 246 245 244 242 243 246 248 248 248 248 247 248 248 246 244 244 247 249 252 256 260 261 261 262 263 266 269 270 269 274 279 280 285 290 293 296 295 296 294 290 289 289 289 288 287 282
251 256 266 272 276 278 277 281 283 280 274 278 284 282 278 275 272 267 269 271 271 273 274 276 277 278 277 276 276 274 273 273 273 272 268 263 259 256 254 251 247 243 243 246 247 246 247 249 248 247 247 248 247 245 244 246 248 250 253 257 259 260 261 262 265 267 269 270 276 278 277 282 286 291 296 297 296 293 290 289 288 288 288 283 278
253 255 263 271 276 276 275 279 284 281 272 276 282 281 278 276 274 272 273 273 272 273 275 277 278 279 278 278 278 276 274 274 273 273 271 268 265 263 260 254 250 247 245 247 248 246 246 248 248 247 248 248 247 246 246 247 248 248 250 253 257 259 259 261 263 265 267 269 273 275 276 281 283 287 292 295 297 295 291 289 286 286 283 279 274
253 256 258 266 273 274 276 280 283 280 274 275 279 281 281 279 278 277 276 276 275 274 275 277 278 279 279 278 278 277 276 276 277 276 275 274 272 270 266 258 253 251 249 249 249 247 246 246 246 247 248 248 247 246 246 247 247 247 248 252 255 258 259 260 261 262 264 266 269 271 274 279 282 285 287 290 295 296 294 288 284 281 276 273 268
252 257 259 264 270 275 278 280 281 278 274 275 276 278 280 281 281 279 277 276 276 277 276 278 278 278 278 277 277 276 276 277 278 277 275 275 275 274 271 264 257 253 252 252 250 248 247 247 246 247 247 246 247 246 246 247 247 247 248 251 254 256 259 259 260 260 261 263 266 268 272 276 279 283 286 289 292 293 291 284 278 274 269 267 264
250 256 261 264 269 275 279 280 281 279 276 276 275 274 277 280 282 281 277 276 276 276 276 277 277 276 276 275 274 275 275 276 277 277 275 275 275 275 273 267 261 257 256 253 251 249 249 247 246 246 246 245 246 245 245 246 245 246 247 250 252 256 259 258 258 259 259 261 262 265 269 272 275 278 281 287 292 289 284 277 271 267 265 263 258
249 256 262 267 270 275 279 280 281 280 280 279 276 274 274 276 279 280 277 275 275 274 275 275 276 275 274 273 273 273 274 275 276 276 275 275 275 276 275 268 263 261 258 253 251 250 249 247 245 245 245 245 244 244 244 244 244 244 246 249 253 256 258 258 257 257 256 258 259 262 265 268 271 274 276 282 287 283 277 270 266 263 259 256 251
249 257 263 269 274 277 282 284 282 282 283 283 281 278 274 274 277 278 277 275 275 274 274 273 274 274 273 273 272 272 274 274 275 275 276 275 275 276 275 270 265 264 261 254 252 251 248 247 246 244 244 244 244 243 243 243 244 243 245 249 252 254 256 256 255 253 253 255 257 258 261 264 268 272 272 276 280 276 270 265 261 258 255 251 245
252 259 266 273 278 281 284 285 282 282 285 286 285 282 277 274 276 278 276 274 275 274 273 271 270 271 272 273 272 271 273 273 273 275 276 275 275 274 273 272 269 266 263 258 254 252 249 249 248 245 243 244 243 242 241 242 243 243 245 248 250 252 254 254 252 250 251 253 254 255 257 261 264 267 267 270 273 269 263 262 257 253 251 247 241
256 261 268 275 279 283 283 282 282 284 287 289 287 285 280 276 277 277 274 272 273 273 272 269 268 268 268 270 271 271 271 272 273 273 275 276 275 274 273 273 270 267 265 262 258 254 251 250 248 245 243 242 241 240 240 241 242 243 244 245 248 250 251 251 249 248 250 251 251 251 253 258 261 262 262 263 264 263 259 257 255 252 248 243 241
258 264 270 277 281 283 284 284 286 288 291 291 289 287 283 280 278 277 275 273 273 272 271 269 267 267 267 268 270 271 272 273 274 274 275 276 276 274 273 272 270 267 265 263 260 256 253 251 248 245 242 241 240 238 238 239 240 242 242 243 246 247 248 248 247 247 248 249 248 248 249 255 259 258 257 257 258 259 258 257 257 253 246 242 239
260 268 274 279 282 285 287 288 289 293 294 293 291 289 285 283 280 278 276 275 274 271 269 268 267 267 268 269 271 274 274 273 275 276 276 276 276 274 273 272 270 267 264 262 261 258 256 252 248 246 243 241 239 236 236 237 238 239 239 241 244 245 246 246 247 246 245 246 246 246 247 251 255 255 253 253 253 254 256 260 258 252 247 244 239
264 273 279 282 284 286 289 288 290 294 296 295 294 292 290 288 285 280 280 280 280 276 270 267 267 268 270 272 275 278 277 275 277 278 277 276 276 275 273 272 270 267 264 263 262 260 256 251 247 246 244 242 238 235 234 235 236 236 236 239 242 244 246 246 247 245 243 244 244 244 246 247 249 251 250 249 249 250 253 257 256 250 248 247 242
273 280 285 287 287 288 289 289 291 293 295 295 294 293 294 293 288 283 283 284 284 283 279 276 274 273 276 279 280 281 280 278 278 279 280 278 277 275 274 273 271 267 265 264 262 260 256 249 245 244 242 240 238 235 233 233 234 234 234 238 240 241 244 245 245 244 243 242 242 244 245 245 245 246 247 248 248 248 250 253 252 249 248 247 244
282 287 290 291 289 289 291 291 292 293 294 295 294 294 295 294 291 286 284 284 283 284 285 285 284 281 281 281 281 282 282 280 279 279 281 280 278 277 275 274 272 268 266 264 261 260 257 248 242 241 240 238 236 234 233 232 232 232 232 235 238 239 243 243 241 242 242 241 241 242 243 244 244 242 242 245 246 244 246 250 249 247 246 246 245
287 292 293 292 289 288 291 291 292 294 294 295 294 293 294 294 292 288 286 286 284 283 285 289 290 288 285 283 282 283 283 282 281 281 281 281 279 278 276 274 273 271 267 264 260 259 256 247 240 238 237 235 234 232 232 231 230 229 230 232 236 240 243 241 240 241 240 239 239 240 241 243 243 241 240 241 242 241 243 247 247 246 245 245 243
288 291 291 291 290 289 290 291 292 294 293 294 293 292 293 294 293 291 289 289 286 284 285 288 291 291 289 286 286 287 287 286 284 283 281 280 280 279 277 274 273 272 269 264 259 257 255 248 240 236 234 233 232 232 231 230 228 228 230 233 236 239 240 238 239 241 238 238 239 238 239 241 240 240 239 239 240 240 241 244 245 244 244 243 239
288 290 288 287 288 289 291 291 292 293 293 292 292 291 292 293 293 293 292 291 289 287 287 289 291 291 290 288 288 289 290 289 287 284 282 280 280 279 277 275 274 272 269 264 259 255 253 247 240 235 233 231 231 232 231 228 228 228 230 232 235 238 238 236 237 237 236 238 238 237 238 238 239 239 237 237 239 239 240 242 242 242 243 241 235
288 289 288 286 286 286 288 291 291 293 294 293 293 292 292 293 294 293 293 292 291 290 290 290 292 292 291 289 289 290 290 290 289 287 284 281 280 278 277 276 274 272 269 263 258 254 250 245 239 236 234 231 231 232 231 228 228 229 229 231 234 237 236 235 236 236 237 237 237 238 238 238 238 238 236 236 237 238 239 240 240 239 242 241 235
288 289 286 285 286 286 287 290 290 291 293 295 294 293 293 293 293 294 294 294 293 292 292 292 293 292 291 290 288 289 289 289 290 289 287 284 281 278 277 276 275 273 269 263 256 250 246 241 237 235 234 232 232 233 232 229 228 229 229 230 232 234 234 235 237 238 240 241 239 238 237 237 239 237 235 235 235 237 238 238 238 238 240 240 236
290 289 286 285 287 289 291 292 292 291 292 294 294 293 293 292 292 293 294 294 293 292 292 291 291 290 290 289 288 287 287 288 289 289 289 287 283 279 277 278 277 273 267 260 252 247 243 238 235 235 233 233 233 234 233 230 228 228 230 230 230 231 233 235 235 237 240 242 241 239 236 236 237 236 234 234 233 235 236 237 237 238 239 239 235
291 291 289 288 290 292 294 295 295 294 294 294 294 293 293 291 291 292 292 292 292 291 291 290 290 290 289 289 288 287 286 286 287 287 288 288 285 281 278 278 278 273 267 258 248 246 242 236 234 234 233 233 235 235 233 229 227 228 231 231 230 231 232 233 233 235 238 240 240 241 238 235 235 235 234 233 233 234 236 236 236 236 238 238 235